User: anonymous   Login
Location: Oshawa
(43.9000°N, 78.8670°W)
Time: 09:07:12
(UTC-04:00)
Language:

Cosmos 1408 Rocket - Orbit

View from above orbital plane
View from above orbital plane
View from above satellite
View from above satellite

Ground track
Ground track

The orbit data is extracted from the following two-line orbital elements,

1 13553U 82092B   14295.82574873  .00000834  00000-0  97885-4 0   507
2 13553 082.5707 056.0633 0021384 008.0068 105.6811 14.83632598733421
Epoch (UTC): 22 October 2014 19:49:04
Eccentricity: 0.0021384
inclination: 82.5707°
perigee height: 603 km
apogee height: 633 km
right ascension of ascending node: 56.0633°
argument of perigee: 8.0068°
revolutions per day: 14.83632598
mean anomaly at epoch: 105.6811°
orbit number at epoch: 73342

The dashed part of the orbit path shows where the satellite is in the earth's shadow,  

DLR